Back to catalog

QIANFAN-48

AliveCommunicationsPO
NORAD 62249·PAYLOAD·🇨🇳 China

Launched Dec 5, 2024 from Taiyuan Satellite Launch Center

Loading…

Next Passes (next 24 hours)

TLE

FreshSource: Space-Track

Epoch: Sep 14, 2026, 14:08 UTC

1 62249U 24232N   26257.58910681  .00000092  00000-0  12306-3 0  9992
2 62249  89.0159  13.5408 0018951 121.7624 238.5377 13.51022373136490

Track QIANFAN-48 in real time with AllMySat

Download on the App Store